Regional Weather Roundup
Issued by NWS State College, PA

Home | Current Version | Previous Version | Graphics & Text | Print | Product List | Glossary On
Versions: 1 2 3 4 5 6 7 8 9 10 11 12 13 14 15 16 17 18 19 20 21 22 23 24 25 26 27 28 29 30 31 32 33 34 35 36 37 38 39 40 41 42 43 44 45 46 47 48 49 50
000
ASUS41 KCTP 231703
RWRCTP

REGIONAL WEATHER ROUNDUP
NATIONAL WEATHER SERVICE STATE COLLEGE PA
1200 PM EST MON JAN 23 2017

Note: "fair" indicates few or no clouds below 12,000 feet with no
significant weather and/or obstructions to visibility.

* = STATION THAT DOES NOT REPORT PRECIPITATION /E.G. RAIN...SNOW...ETC/
    THUNDER OR FOG.

PAZ002>004-007>009-013>016-020>023-029>032-231800-
WESTERN PENNSYLVANIA

CITY           SKY/WX    TMP DP  RH WIND       PRES   REMARKS
ERIE           CLOUDY    43  40  89 NE14      29.63F
MEADVILLE      CLOUDY    49  39  68 E16G22    29.58F
FRANKLIN*        N/A     45  39  81 E10G18    29.59F
NEW CASTLE     LGT RAIN  48  41  76 E13G25    29.57F
BEAVER COUNTY  LGT RAIN  45  41  87 E5G17     29.56S
BUTLER*        CLOUDY    43  37  81 NE13      29.57F
PITTSBURGH INT LGT RAIN  44  41  89 E16       29.53F
PITTSBURGH     LGT RAIN  43  38  82 NE9G18    29.51F
INDIANA*       CLOUDY    41  37  87 E12G22    29.56F
LATROBE        CLOUDY    43  39  87 E16       29.52F
WASHINGTON CO* CLOUDY    43  39  87 NE13G20   29.50F
$$

PAZ004>006-010>012-017>019-024>028-033>037-041-042-045-046-049>053-231800-
CENTRAL PENNSYLVANIA

CITY           SKY/WX    TMP DP  RH WIND       PRES   REMARKS
BRADFORD       CLOUDY    43  38  82 E14G20    29.62F
DUBOIS         CLOUDY    42  37  82 E20G29    29.56F
CLEARFIELD     LGT RAIN  40  39  97 NE12      29.58F
JOHNSTOWN      CLOUDY    37  36  96 E21G30    29.47F
ALTOONA        LGT RAIN  40  39  97 NE15G28   29.55F
STATE COLLEGE  LGT RAIN  37  36  93 NE16      29.61F
WILLIAMSPORT   LGT RAIN  42  36  79 E10       29.67F
SELINSGROVE    CLOUDY    41  35  79 NE18G24   29.65F
FT INDIANTOWN  CLOUDY    40  39  99 NE15G23   29.59F
CAPITAL CITY   LGT RAIN  40  34  79 E24G31    29.60F
HARRISBURG     LGT RAIN  40  36  86 E18G29    29.59F
YORK           LGT RAIN  39  36  89 E23G36    29.56F
$$

PAZ038>040-043-044-047-048-054-055-060>062-067>071-231800-
EASTERN PENNSYLVANIA

CITY           SKY/WX    TMP DP  RH WIND       PRES   REMARKS
SCRANTON       CLOUDY    38  31  76 E10G25    29.71F
MOUNT POCONO   CLOUDY    31  27  85 E20G31    29.67F
ALLENTOWN      CLOUDY    41  29  62 NE26G35   29.67F
QUAKERTOWN*    CLOUDY    37  32  81 E15G25    29.66F
READING        CLOUDY    40  34  79 NE14G21   29.61F
LANCASTER      NOT AVBL
COATESVILLE    MIX PCPN  37  36  93 E20G49    29.59F
POTTSTOWN      LGT RAIN  37  33  85 E15G31    29.66F
BLUE BELL      CLOUDY    36  34  93 NE18G38   29.64F
DOYLESTOWN     LGT RAIN  38  34  85 NE10G25   29.66F
WILLOW GROVE   NOT AVBL
NORTH PHILA    LGT RAIN  40  35  83 E26G36    29.67F
PHILADELPHIA   LGT RAIN  40  36  86 E28G45    29.62F
$$




USA.gov is the U.S. government's official web portal to all federal, state and local government web resources and services.